Regional Weather Roundup
Issued by NWS

Home | Current Version | Previous Version | Graphics & Text | Print | Product List | Glossary Off
Versions: 1 2 3 4 5 6 7 8 9 10 11 12 13 14 15 16 17 18 19 20 21 22 23 24 25 26 27 28 29 30 31 32 33 34 35 36 37 38 39 40 41 42 43 44 45 46 47 48 49 50

000
ASUS43 KTOP 300308
RWRKS

WEATHER ROUNDUP FOR KANSAS
NATIONAL WEATHER SERVICE GOODLAND KS
1000 PM CDT FRI APR 29 2016

NOTE:  "FAIR" INDICATES FEW OR NO CLOUDS BELOW 12,000 FEET WITH NO
SIGNIFICANT WEATHER AND/OR OBSTRUCTIONS TO VISIBILITY.

KSZ001>006-013>018-027>032-041>047-300400-
NORTHWEST KANSAS

CITY           SKY/WX    TMP DP  RH WIND       PRES   REMARKS
GOODLAND       LGT SNOW N/A N/A N/A N10       29.84S
HAYS           CLOUDY    46  37  71 N10       29.82S
HILL CITY      LGT RAIN  43  41  93 N10       29.86S
RUSSELL        RAIN      47  46  97 NW12      29.80S FOG
$$

KSZ061>065-074>080-084>089-300400-
SOUTHWEST KANSAS

CITY           SKY/WX    TMP DP  RH WIND       PRES   REMARKS
DODGE CITY     CLOUDY    42  40  92 N14       29.80R
ELKHART          N/A     40  35  83 NW9         N/A
GARDEN CITY    MOCLDY    38  36  92 N13       29.81R WCI  30
GREAT BEND     CLOUDY    46  41  81 NW10      29.80S
LIBERAL        CLOUDY    43  37  81 NW14      29.83R
PRATT          DRIZZLE   45  44  97 NW13      29.76S
$$

KSZ066>073-081>083-090>101-300400-
SOUTHEAST KANSAS

CITY           SKY/WX    TMP DP  RH WIND       PRES   REMARKS
CHANUTE        CLOUDY    58  54  86 E21G29    29.61F
COFFEYVILLE    CLOUDY    61  58  90 VRB3      29.65R
HUTCHINSON     CLOUDY    52  51  97 E9        29.73S FOG
MEDICINE LODGE   N/A     50  49  96 NW9       29.73S
NEWTON         CLOUDY    52  46  82 E9G16     29.72F
PARSONS        LGT RAIN  60  58  92 W8G17     29.68F
WICHITA INTL   CLOUDY    56  53  90 NE7       29.69F
WICHITA JABRA  CLOUDY    54  53  97 NE8       29.68F
WICHITA MCCONL CLOUDY    56  53  92 NE7       29.68S
WINFIELD       CLOUDY    58  55  90 E13       29.65S
$$

KSZ007>012-019>026-033>040-048>060-102>105-300400-
NORTHEAST KANSAS

CITY           SKY/WX    TMP DP  RH WIND       PRES   REMARKS
CONCORDIA      CLOUDY    49  45  86 E16G30    29.77S
EMPORIA        LGT RAIN  53  51  93 NE14      29.71F
LAWRENCE       CLOUDY    53  50  89 E15G23    29.78F
MANHATTAN      CLOUDY    52  47  83 E21G28    29.76S
MARYSVILLE     CLOUDY    48  45  87 E15G24    29.82R
OLATHE IND     CLOUDY    54  52  93 E16G25    29.78S
OLATHE EXE     CLOUDY    53  51  93 E14G23    29.78S
SALINA         CLOUDY    52  50  93 E10       29.75R
TOPEKA BILLARD LGT RAIN  53  49  86 NE8       29.81R
TOPEKA FORBES  TSTM      54  50  86 NE10G21   29.79R
$$




USA.gov is the U.S. government's official web portal to all federal, state and local government web resources and services.